HARMAJA Weather Reports


time (UTC)temp
C
wind
direction
speed
KPH
gust
KPH
rain 1hr
cm
rain 24hr
cm
rain mn
cm
humidity
%
barometer
mb
20260503222709 6 242 16.1 19.3 0.00 0.00 0.00 93 1007.2
20260503220708 6 241 14.5 16.1 0.00 0.00 0.00 93 1007.3
20260503214708 6 233 11.3 14.5 0.00 0.00 0.00 92 1007.4
20260503212708 6 224 11.3 12.9 0.00 0.00 0.00 92 1007.3
20260503210708 6 243 14.5 16.1 0.00 0.00 0.00 91 1007.3
20260503204708 6 240 14.5 16.1 0.00 0.00 0.00 92 1007.4
20260503202708 6 236 17.7 19.3 0.00 0.00 0.00 91 1007.5
20260503200708 6 234 16.1 17.7 0.00 0.00 0.00 90 1007.5
20260503194708 6 247 14.5 16.1 0.00 0.00 0.00 89 1007.6
20260503192708 6 240 17.7 19.3 0.00 0.00 0.00 89 1007.7
20260503190708 7 255 19.3 22.5 0.00 0.00 0.00 88 1007.6
20260503184708 7 244 24.1 25.7 0.00 0.00 0.00 87 1007.5
20260503182707 7 241 24.1 25.7 0.00 0.00 0.00 87 1007.6
20260503180707 7 235 25.7 25.7 0.00 0.00 0.00 87 1007.4
20260503174708 6 236 25.7 27.4 0.00 0.00 0.00 89 1007.5
20260503172714 6 239 24.1 27.4 0.00 0.00 0.00 89 1007.5
20260503170707 6 245 25.7 30.6 0.00 0.00 0.00 88 1007.6
20260503150707 7 231 29.0 32.2 0.00 0.00 0.00 85 1007.8
20260503130706 7 217 32.2 37.0 0.00 0.00 0.00 85 1008.1
20260503110706 7 210 22.5 27.4 0.00 0.00 0.00 80 1008.2
20260503080706 6 229 17.7 19.3 0.00 0.00 0.00 88 1007.5
20260503072705 6 236 17.7 19.3 0.00 0.00 0.00 92 1007.4
20260503070705 5 233 20.9 24.1 0.00 0.00 0.00 94 1007.3
20260503054705 6 267 11.3 14.5 0.00 0.00 0.00 90 1006.2
20260503052706 6 256 14.5 16.1 0.00 0.00 0.00 92 1006.1
20260503050705 5 258 14.5 16.1 0.00 0.00 0.00 93 1006.0
20260503044705 5 251 17.7 20.9 0.00 0.00 0.00 94 1005.9
20260503042705 5 237 16.1 19.3 0.00 0.00 0.00 93 1005.8
20260503040705 5 244 22.5 24.1 0.00 0.00 0.00 93 1005.9
20260503034705 5 235 20.9 22.5 0.00 0.00 0.00 93 1005.4
20260503032705 5 246 24.1 27.4 0.00 0.00 0.00 92 1005.7
20260503030705 5 242 24.1 27.4 0.00 0.00 0.00 92 1005.8
20260503024705 5 236 27.4 32.2 0.00 0.00 0.00 92 1005.7
20260503022704 5 237 27.4 30.6 0.00 0.00 0.00 91 1005.6
20260503020704 5 249 24.1 29.0 0.00 0.00 0.00 91 1005.7
20260503014705 5 242 27.4 32.2 0.00 0.00 0.00 90 1005.8
20260503012705 5 223 25.7 30.6 0.00 0.00 0.00 89 1005.5
20260503010705 5 230 25.7 27.4 0.00 0.00 0.00 90 1005.8
20260503004704 5 233 22.5 29.0 0.00 0.00 0.00 89 1006.1
20260503002704 5 244 20.9 24.1 0.00 0.00 0.00 89 1006.5
20260503000704 6 227 29.0 33.8 0.00 0.00 0.00 87 1006.4
20260502234704 6 229 25.7 27.4 0.00 0.00 0.00 87 1006.6
20260502232704 5 221 20.9 24.1 0.00 0.00 0.00 89 1006.8
20260502230704 5 205 16.1 19.3 0.00 0.00 0.00 91 1007.1
20260502224704 5 216 20.9 22.5 0.00 0.00 0.00 90 1007.1